Regional Weather Roundup
Issued by NWS

Home | Current Version | Previous Version | Text Only | Print | Product List | Glossary On
Versions: 1 2 3 4 5 6 7 8 9 10 11 12 13 14 15 16 17 18 19 20 21 22 23 24 25 26 27 28 29 30 31 32 33 34 35 36 37 38 39 40 41 42 43 44 45 46 47 48 49 50
000
ASUS46 KSTO 120809
RWRCA

NORTHERN AND CENTRAL CA REGIONAL WEATHER ROUNDUP
NATIONAL WEATHER SERVICE SACRAMENTO CA
1200 AM PST FRI FEB 12 2016

NOTE: FAIR INDICATES FEW OR NO CLOUDS BELOW 12,000 FEET WITH NO
SIGNIFICANT WEATHER AND/OR OBSTRUCTIONS TO VISIBILITY.

CAZ001-003-120900-
NORTHWEST AREA

CITY           SKY/WX    TMP DP  RH WIND       PRES   REMARKS
CRESCENT CITY  CLOUDY    55  53  93 S13       30.20S
ARCATA         NOT AVBL
SHELTER COVE   NOT AVBL
UKIAH          CLEAR     50  45  83 CALM      30.20F
$$

CAZ006-505>513-120900-
BAY AREA

CITY           SKY/WX    TMP DP  RH WIND       PRES   REMARKS
SANTA ROSA     CLEAR     48  46  93 CALM      30.19R
SAN RAFAEL     N/A       58  MM  MM MISG
NAPA           CLEAR     49  47  93 SE3       30.19S
CONCORD        PTCLDY    53  48  83 S6        30.19S HAZE
OAKLAND CITY   N/A       57  MM  MM MISG
OAKLAND        PTCLDY    55  50  83 CALM      30.20S
SAN FRAN CITY  N/A       53  MM  96 MISG
SAN FRAN ARPT  PTCLDY    53  50  89 W13       30.20S
LIVERMORE      MOCLDY    52  48  86 CALM      30.19R
HAYWARD        PTCLDY    53  50  89 CALM      30.19S
REDWOOD CITY   N/A       MM  MM  MM MISG
MOFFETT ARPT   MOCLDY    56  51  84 CALM      30.21R
SAN JOSE ARPT  MOCLDY    56  52  86 CALM      30.20R
$$
CAZ034-037-514>518-120900-
CENTRAL COAST

CITY           SKY/WX    TMP DP  RH WIND       PRES   REMARKS
WATSONVILLE    FOG       52  51  97 CALM      30.20R VSB 1/4
SALINAS        FOG       52  50  93 NW5       30.19S VSB 1/4
MONTEREY       FOG       49  49 100 CALM      30.20R VSB 1/4
PT PIEDRAS BLS NOT AVBL
SAN LUIS OBISP FOG       50  48  93 NW5       30.16S VSB 1/4
SANTA MARIA    CLEAR     49  47  93 CALM      30.16S
$$
CAZ015-016-120900-
NORTHERN SACRAMENTO VALLEY

CITY           SKY/WX    TMP DP  RH WIND       PRES   REMARKS
REDDING        PTCLDY    50  44  80 CALM      30.18S
RED BLUFF      CLEAR     51  47  86 NW6       30.19R
OROVILLE       PTCLDY    54  46  74 E3        30.19S
$$
CAZ016>018-120900-
SOUTHERN SACRAMENTO VALLEY

CITY           SKY/WX    TMP DP  RH WIND       PRES   REMARKS
AUBURN         PTCLDY    55  41  58 E5        30.21R
BEALE AFB      CLEAR     50  47  89 NE3       30.16S
LINCOLN        FAIR      45  43  93 NE6       30.17S
MARYSVILLE     CLEAR     49  48  97 CALM      30.18R
PLACERVILLE    FAIR      57  28  33 E7        30.23S
SAC INTL ARPT  CLEAR     48  47  96 CALM      30.17S
MATHER AIRPORT NOT AVBL
DOWNTOWN SAC   N/A       54  MM  MM MISG
SAC EXEC ARPT  PTCLDY    49  46  90 CALM      30.18R
VACAVILLE      CLEAR     49  45  86 CALM      30.18S
TRAVIS AFB     CLEAR     52  49  89 S9        30.15F
$$
CAZ019>021-120900-
SAN JOAQUIN VALLEY

CITY           SKY/WX    TMP DP  RH WIND       PRES   REMARKS
STOCKTON       MOCLDY    49  49 100 CALM      30.17R FOG
MODESTO        PTCLDY    51  48  89 CALM      30.17R FOG
MERCED         FOG       48  47  96 CALM      30.17S VSB 1/4
LEMOORE        PTCLDY    49  45  86 NW3       30.18R FOG
FRESNO         PTCLDY    52  49  89 CALM      30.18S
HANFORD        CLEAR     50  47  89 E5        30.18S FOG
PORTERVILLE    CLEAR    N/A N/A N/A E5        30.19S
BAKERSFIELD    CLEAR     55  48  77 CALM      30.17R HAZE
$$
CAZ011-012-071-120900-
NORTHERN MOUNTAINS

CITY           SKY/WX    TMP DP  RH WIND       PRES   REMARKS
YREKA          PTCLDY    44  33  65 NE9       30.19S
MOUNT SHASTA   CLEAR     38  30  73 CALM      30.22S
ALTURAS        PTCLDY    44  35  70 CALM      30.24S
$$
CAZ011-012-071-120900-
SIERRA NEVADA MTNS

CITY           SKY/WX    TMP DP  RH WIND       PRES   REMARKS
BLUE CANYON    PTCLDY    52  17  25 SE3       30.32S
TRUCKEE        PTCLDY    28  23  80 CALM      30.35S
TAHOE VLY ARPT PTCLDY    29  24  82 CALM      30.34S
MAMMOTH LAKES  FAIR      32  19  59 NW3       30.39F
$$



USA.gov is the U.S. government's official web portal to all federal, state and local government web resources and services.